This is the latest recevied weather packets stored in our database for station/object IU0KRR-10. If no packets are shown the sender has not sent any weather packets the latest 10 day(s).
| Time | Temp. | Humidity | Pressure | Rain* | Wind** | Luminosity | Snow |
|---|---|---|---|---|---|---|---|
| 1777623183 | 18.33° C | 27% | 877.3 hPa | - | - | - | - |
| 1777623147 | 18.33° C | 27% | 877.3 hPa | - | - | - | - |
| 1777622246 | 18.33° C | 27% | 877.2 hPa | - | - | - | - |
| 1777621346 | 18.89° C | 27% | 877.2 hPa | - | - | - | - |
| 1777620446 | 18.33° C | 28% | 876.8 hPa | - | - | - | - |
| 1777619545 | 17.22° C | 30% | 876.8 hPa | - | - | - | - |
| 1777618645 | 17.22° C | 30% | 876.7 hPa | - | - | - | - |
| 1777617745 | 16.67° C | 32% | 876.6 hPa | - | - | - | - |
| 1777616845 | 15.56° C | 33% | 876.6 hPa | - | - | - | - |
| 1777615945 | 15° C | 34% | 876.5 hPa | - | - | - | - |
| 1777615044 | 14.44° C | 35% | 876.4 hPa | - | - | - | - |
| 1777614143 | 13.89° C | 36% | 876.4 hPa | - | - | - | - |
| 1777613243 | 13.33° C | 37% | 876.4 hPa | - | - | - | - |
| 1777612343 | 12.22° C | 38% | 876.2 hPa | - | - | - | - |
| 1777611443 | 11.67° C | 39% | 876.1 hPa | - | - | - | - |
| 1777610542 | 11.11° C | 39% | 875.8 hPa | - | - | - | - |
| 1777609642 | 11.11° C | 38% | 875.6 hPa | - | - | - | - |
| 1777608776 | 11.11° C | 37% | 875.6 hPa | - | - | - | - |
| 1777608742 | 11.11° C | 37% | 875.6 hPa | - | - | - | - |
| 1777607842 | 11.67° C | 37% | 875.4 hPa | - | - | - | - |
| 1777606942 | 11.67° C | 37% | 875.5 hPa | - | - | - | - |
| 1777606041 | 11.11° C | 38% | 875.5 hPa | - | - | - | - |
| 1777605141 | 11.11° C | 38% | 875.4 hPa | - | - | - | - |
| 1777604241 | 11.11° C | 38% | 875.4 hPa | - | - | - | - |
| 1777603341 | 11.11° C | 39% | 875.5 hPa | - | - | - | - |
* Rain since midnight (hover to see other rain measurements)
** Current wind speed in m/s (hover to see current wind gust speed)